{"data":{"norad_id":60514,"epoch":"2026-09-19T11:56:38.045184Z","epoch_age_seconds":101114,"freshness":"FRESH","line1":"1 60514U 24149AY  26262.49766256  .00025922  00000+0  56991-3 0  9991","line2":"2 60514  97.3736 347.8470 0001621 331.6555  28.4604 15.43980028116859","mean_motion":15.43980028,"eccentricity":0.0001621,"inclination_deg":97.3736,"raan_deg":347.847,"arg_perigee_deg":331.6555,"mean_anomaly_deg":28.4604,"bstar":0.00056991,"rev_number":11685,"period_min":93.265455115071,"perigee_km":433.27239927056,"apogee_km":435.48101621462,"semimajor_km":6812.5137077426,"source":"CELESTRAK","updated_at":"2026-09-20T09:00:34.715327Z"}}